FW4460 Weather Reports


Display with metric or nautical units.
time (UTC)temp
F
wind
direction
speed
MPH
gust
MPH
rain 1hr
in
rain 24hr
in
rain mn
in
humidity
%
barometer
mb
20260504050004 48 134 0.0 0.0 0.00 0.00 0.00 82 1015.9
20260504045503 48 167 0.0 0.0 0.00 0.00 0.00 82 1015.9
20260504044004 49 124 0.0 0.0 0.00 0.00 0.00 82 1016.0
20260504043504 49 124 0.0 0.0 0.00 0.00 0.00 81 1016.0
20260504043004 49 124 0.0 0.0 0.00 0.00 0.00 80 1016.1
20260504042504 49 124 0.0 0.0 0.00 0.00 0.00 80 1016.1
20260504041004 50 124 0.0 0.0 0.00 0.00 0.00 81 1016.0
20260504040504 50 124 0.0 0.0 0.00 0.00 0.00 79 1016.1
20260504040004 50 124 0.0 0.0 0.00 0.00 0.00 79 1016.0
20260504035004 50 124 0.0 0.0 0.00 0.00 0.00 78 1016.1
20260504034004 50 124 0.0 0.0 0.00 0.00 0.00 79 1016.2
20260504033504 51 125 0.0 0.0 0.00 0.00 0.00 79 1016.1
20260504033004 51 125 0.0 0.0 0.00 0.00 0.00 79 1016.1
20260504032504 51 125 0.0 0.0 0.00 0.00 0.00 78 1016.2
20260504031504 51 142 0.0 0.0 0.00 0.00 0.00 77 1016.2
20260504031004 52 136 0.0 0.0 0.00 0.00 0.00 77 1016.2
20260504025004 52 148 0.0 0.0 0.00 0.00 0.00 76 1016.2
20260504024504 52 135 0.0 0.0 0.00 0.00 0.00 76 1016.2
20260504024004 52 135 0.0 0.0 0.00 0.00 0.00 77 1016.3
20260504023504 52 126 0.0 1.0 0.00 0.00 0.00 76 1016.3
20260504023004 52 139 0.0 0.0 0.00 0.00 0.00 76 1016.3
20260504022504 52 139 0.0 0.0 0.00 0.00 0.00 76 1016.2
20260504022004 52 138 0.0 0.0 0.00 0.00 0.00 77 1016.2
20260504021504 53 144 0.0 0.0 0.00 0.00 0.00 76 1016.1
20260504021004 53 145 0.0 1.0 0.00 0.00 0.00 75 1016.1
20260504020504 53 124 0.0 1.0 0.00 0.00 0.00 72 1016.0
20260504020004 53 123 0.0 0.0 0.00 0.00 0.00 72 1016.0
20260504015004 54 123 0.0 0.0 0.00 0.00 0.00 72 1015.9
20260504014503 54 123 0.0 0.0 0.00 0.00 0.00 72 1015.8
20260504014004 54 123 0.0 0.0 0.00 0.00 0.00 72 1015.8
20260504013504 55 146 0.0 0.0 0.00 0.00 0.00 70 1015.8
20260504013004 55 146 0.0 0.0 0.00 0.00 0.00 68 1015.8
20260504012504 55 146 0.0 0.0 0.00 0.00 0.00 67 1015.8
20260504012004 56 146 0.0 0.0 0.00 0.00 0.00 65 1015.8
20260504011504 56 146 0.0 0.0 0.00 0.00 0.00 64 1015.8
20260504011004 57 146 0.0 0.0 0.00 0.00 0.00 63 1015.8
20260504010504 57 146 0.0 0.0 0.00 0.00 0.00 62 1015.7
20260504010004 57 146 0.0 0.0 0.00 0.00 0.00 62 1015.7
20260504005004 58 146 0.0 0.0 0.00 0.00 0.00 60 1015.6
20260504004004 60 146 0.0 1.0 0.00 0.00 0.00 57 1015.5
20260504003004 62 149 0.0 0.0 0.00 0.00 0.00 52 1015.5
20260504002504 63 149 0.0 1.0 0.00 0.00 0.00 50 1015.5
20260504002004 65 118 0.0 1.0 0.00 0.00 0.00 48 1015.5
20260504001504 66 218 0.0 0.0 0.00 0.00 0.00 46 1015.5
20260504001004 67 218 0.0 0.0 0.00 0.00 0.00 45 1015.5
20260504000504 67 215 0.0 0.0 0.00 0.00 0.00 45 1015.5
20260504000004 68 214 0.0 1.0 0.00 0.00 0.00 44 1015.5
20260503235004 68 245 0.0 0.0 0.00 0.00 0.00 44 1015.6
20260503234504 67 278 0.0 0.0 0.00 0.00 0.00 45 1015.7
20260503234004 67 278 0.0 3.0 0.00 0.00 0.00 45 1015.7
20260503233003 67 238 0.0 3.0 0.00 0.00 0.00 43 1015.9
20260503232504 67 260 1.0 3.0 0.00 0.00 0.00 42 1015.9
20260503232004 67 286 2.0 3.0 0.00 0.00 0.00 42 1016.0
20260503231504 67 275 1.0 3.0 0.00 0.00 0.00 43 1016.0
20260503231004 67 233 1.0 7.0 0.00 0.00 0.00 44 1016.1
20260503230504 67 269 3.0 9.0 0.00 0.00 0.00 42 1016.1
20260503230004 67 270 2.0 7.0 0.00 0.00 0.00 42 1016.1
20260503225504 67 264 1.0 7.0 0.00 0.00 0.00 41 1016.2
20260503225004 67 266 1.0 8.0 0.00 0.00 0.00 45 1016.2
20260503224003 68 310 0.0 3.0 0.00 0.00 0.00 43 1016.3
20260503223004 67 254 1.0 3.0 0.00 0.00 0.00 43 1016.3
20260503222504 67 245 2.0 7.0 0.00 0.00 0.00 40 1016.3
20260503221504 68 238 3.0 6.0 0.00 0.00 0.00 43 1016.3
20260503221004 68 302 2.0 8.0 0.00 0.00 0.00 42 1016.3
20260503220504 68 294 3.0 7.0 0.00 0.00 0.00 38 1016.3
20260503220004 68 289 1.0 3.0 0.00 0.00 0.00 40 1016.3
20260503215504 68 308 2.0 6.0 0.00 0.00 0.00 39 1016.4
20260503215004 68 287 2.0 5.0 0.00 0.00 0.00 42 1016.4
20260503214504 68 243 3.0 8.0 0.00 0.00 0.00 39 1016.4
20260503214004 68 254 1.0 2.0 0.00 0.00 0.00 46 1016.5
20260503213504 67 30 1.0 5.0 0.00 0.00 0.00 42 1016.6
20260503213004 67 288 5.0 7.0 0.00 0.00 0.00 39 1016.6
20260503212504 67 262 1.0 5.0 0.00 0.00 0.00 44 1016.6
20260503212004 67 16 3.0 5.0 0.00 0.00 0.00 39 1016.7
20260503211504 67 310 4.0 8.0 0.00 0.00 0.00 40 1016.8
20260503211003 68 273 3.0 7.0 0.00 0.00 0.00 42 1016.7
20260503210504 67 270 2.0 3.0 0.00 0.00 0.00 42 1016.8
20260503210004 67 111 2.0 7.0 0.00 0.00 0.00 44 1017.0
20260503205504 67 248 2.0 3.0 0.00 0.00 0.00 43 1017.0
20260503205004 66 139 1.0 8.0 0.00 0.00 0.00 43 1017.0
20260503204504 67 232 3.0 8.0 0.00 0.00 0.00 42 1017.1
20260503203004 67 229 2.0 6.0 0.00 0.00 0.00 45 1017.4
20260503202504 67 211 2.0 6.0 0.00 0.00 0.00 44 1017.5
20260503202004 66 195 1.0 5.0 0.00 0.00 0.00 44 1017.6
20260503201503 66 281 3.0 8.0 0.00 0.00 0.00 44 1017.6
20260503201004 65 309 1.0 8.0 0.00 0.00 0.00 42 1017.7
20260503200503 66 94 0.0 5.0 0.00 0.00 0.00 45 1017.9
20260503195504 65 285 6.0 12.0 0.00 0.00 0.00 41 1018.2
20260503195005 66 288 3.0 7.0 0.00 0.00 0.00 44 1018.3
20260503194504 65 292 4.0 10.0 0.00 0.00 0.00 42 1018.4
20260503194004 66 263 2.0 6.0 0.00 0.00 0.00 43 1018.5
20260503193504 66 278 3.0 9.0 0.00 0.00 0.00 46 1018.5
20260503193004 66 266 3.0 7.0 0.00 0.00 0.00 48 1018.6
20260503192504 65 7 0.0 7.0 0.00 0.00 0.00 50 1018.6
20260503191504 64 350 0.0 5.0 0.00 0.00 0.00 45 1018.8
20260503191004 64 272 6.0 12.0 0.00 0.00 0.00 43 1018.9
20260503190504 64 263 5.0 9.0 0.00 0.00 0.00 46 1018.9
20260503190004 64 276 2.0 6.0 0.00 0.00 0.00 44 1018.9
20260503185503 64 279 5.0 9.0 0.00 0.00 0.00 45 1019.0
20260503185004 64 286 6.0 12.0 0.00 0.00 0.00 43 1019.0
20260503184504 64 298 2.0 6.0 0.00 0.00 0.00 48 1019.1
20260503184004 64 285 1.0 6.0 0.00 0.00 0.00 46 1019.1
20260503183504 64 335 4.0 9.0 0.00 0.00 0.00 46 1019.2
20260503182504 64 306 3.0 8.0 0.00 0.00 0.00 44 1019.3
20260503181505 64 283 3.0 6.0 0.00 0.00 0.00 44 1019.4
20260503181005 63 263 1.0 3.0 0.00 0.00 0.00 51 1019.5
20260503180504 63 309 2.0 7.0 0.00 0.00 0.00 47 1019.4
20260503180004 63 278 1.0 7.0 0.00 0.00 0.00 47 1019.5
20260503175504 63 294 3.0 5.0 0.00 0.00 0.00 44 1019.6
20260503174504 64 210 1.0 3.0 0.00 0.00 0.00 47 1019.8
20260503174004 63 161 2.0 7.0 0.00 0.00 0.00 48 1019.8
20260503173004 62 296 3.0 9.0 0.00 0.00 0.00 47 1020.0
20260503172504 62 268 2.0 5.0 0.00 0.00 0.00 45 1020.1
20260503171004 60 342 1.0 3.0 0.00 0.00 0.00 46 1020.3
20260503170504 60 295 3.0 9.0 0.00 0.00 0.00 46 1020.3
20260503151004 56 320 2.0 3.0 0.00 0.00 0.00 64 1021.0
20260503150504 57 304 1.0 3.0 0.00 0.00 0.00 63 1021.0
20260503131004 47 300 0.0 0.0 0.00 0.00 0.00 90 1020.8
20260503110504 40 163 0.0 0.0 0.00 0.00 0.00 95 1019.7
20260503090504 41 167 0.0 1.0 0.00 0.00 0.00 93 1019.1
20260503081504 42 323 0.0 0.0 0.00 0.00 0.00 92 1018.8
20260503081004 43 323 0.0 1.0 0.00 0.00 0.00 92 1018.7
20260503080504 43 309 0.0 1.0 0.00 0.00 0.00 93 1018.8
20260503072504 44 359 0.0 0.0 0.00 0.00 0.00 92 1018.5
20260503072004 44 4 0.0 0.0 0.00 0.00 0.00 91 1018.4
20260503071004 44 8 0.0 0.0 0.00 0.00 0.00 91 1018.3
20260503070504 44 8 0.0 1.0 0.00 0.00 0.00 91 1018.2